User: anonymous   Login
Location: Unspecified
(0.0000°N, 0.0000°E)
Time: 04:49:03
(UTC+00:00)
Language:

BRITE-PL - Orbit

View from above orbital plane
View from above orbital plane
View from above satellite
View from above satellite

Ground track
Ground track

The orbit data is extracted from the following two-line orbital elements,

1 39431U 13066R   18018.81489589 +.00000019 +00000-0 +14036-4 0  9994
2 39431 097.7375 342.7876 0202787 168.0626 192.5482 14.46902217219630
Epoch (UTC): 18 January 2018 19:33:27
Eccentricity: 0.0202787
inclination: 97.7375°
perigee height: 591 km
apogee height: 880 km
right ascension of ascending node: 342.7876°
argument of perigee: 168.0626°
revolutions per day: 14.46902217
mean anomaly at epoch: 192.5482°
orbit number at epoch: 21963

The dashed part of the orbit path shows where the satellite is in the earth's shadow,  

DLR